Weather History for PASC - August, 2013

Change the Weather History Date:

Thursday, August 1, 2013

  Actual Average (WUND) Record (WUND)
Temperature  
Mean Temperature 58 °F -  
Max Temperature 72 °F - - (-1)
Min Temperature 44 °F - - (-1)
Degree Days  
Heating Degree Days 7    
Growing Degree Days 8 (Base 50)    
Moisture  
Dew Point 48 °F    
Average Humidity 79    
Maximum Humidity 100    
Minimum Humidity 44    
Precipitation  
Precipitation 0.00 in - - ()
Sea Level Pressure  
Sea Level Pressure 29.98 in    
Wind  
Wind Speed 8 mph (ESE)    
Max Wind Speed 15 mph    
Max Gust Speed -    
Visibility 10 miles    
Events      
Averages and records for this station are not official NWS values.
T = Trace of Precipitation, MM = Missing Value Source: NWS Daily Summary

Daily Weather History Graph

Daily Weather History Graph

Search for Another Location

Airport or City:

Trip Planner

Search our weather history database for the weather conditions in past years. The results will help you decide how hot, cold, wet, or windy it might be!

Date:

Astronomy

Aug. 01, 2013 Rise Set
Actual Time 3:18 AM AKDT 12:33 AM AKDT
Civil Twilight Sun does not rise Sun does not rise
Nautical Twilight Sun does not rise Sun does not rise
Astronomical Twilight Sun does not rise Sun does not rise
Moon No Moon Rise No Moon Set
Length of Visible Light 24h 00m
Length of Day
21h 15m
Waning Crescent, 22% of the Moon is Illuminated
Aug 1
Waning Crescent
Aug 6
New
Aug 14
First Quarter
Aug 20
Full
Aug 28
Last Quarter

Hourly Weather History & Observations

Time (AKDT) Temp. Windchill Dew Point Humidity Pressure Visibility Wind Dir Wind Speed Gust Speed Precip Events Conditions
12:53 AM 45.0 °F 41.2 °F 43.0 °F 93% 30.10 in 10.0 mi East 6.9 mph - N/A   Overcast
1:25 AM 44.6 °F 40.7 °F 42.8 °F 93% 30.09 in 10.0 mi East 6.9 mph - N/A   Overcast
1:53 AM 45.0 °F 41.2 °F 43.0 °F 93% 30.09 in 10.0 mi East 6.9 mph - N/A   Overcast
2:10 AM 44.6 °F 40.7 °F 44.6 °F 100% 30.09 in 10.0 mi East 6.9 mph - N/A   Overcast
2:53 AM 45.0 °F 41.2 °F 44.1 °F 97% 30.09 in 10.0 mi ESE 6.9 mph - N/A   Overcast
3:03 AM 44.6 °F 40.7 °F 44.6 °F 100% 30.08 in 10.0 mi ESE 6.9 mph - N/A   Overcast
3:53 AM 45.0 °F 40.6 °F 44.1 °F 97% 30.07 in 10.0 mi ESE 8.1 mph - N/A   Mostly Cloudy
4:08 AM 44.6 °F 40.7 °F 44.6 °F 100% 30.06 in 10.0 mi ESE 6.9 mph - N/A   Mostly Cloudy
4:37 AM 44.6 °F 40.2 °F 44.6 °F 100% 30.05 in 10.0 mi East 8.1 mph - N/A   Mostly Cloudy
4:53 AM 45.0 °F 41.2 °F 44.1 °F 97% 30.05 in 10.0 mi ESE 6.9 mph - N/A   Mostly Cloudy
5:53 AM 46.0 °F 41.4 °F 44.1 °F 93% 30.04 in 10.0 mi ESE 9.2 mph - N/A   Mostly Cloudy
6:50 AM 46.4 °F 41.9 °F 44.6 °F 93% 30.02 in 10.0 mi SE 9.2 mph - N/A   Overcast
6:53 AM 46.9 °F - 45.0 °F 93% 30.03 in 10.0 mi SE 9.2 mph - N/A   Overcast
7:53 AM 46.9 °F - 46.0 °F 97% 30.01 in 10.0 mi SE 9.2 mph - N/A   Overcast
8:53 AM 50.0 °F - 48.0 °F 93% 30.01 in 10.0 mi SE 6.9 mph - N/A   Overcast
9:53 AM 53.1 °F - 50.0 °F 89% 29.99 in 10.0 mi ESE 8.1 mph - N/A   Mostly Cloudy
10:53 AM 59.0 °F - 52.0 °F 78% 29.97 in 10.0 mi SSE 10.4 mph - N/A   Clear
11:53 AM 63.0 °F - 53.1 °F 70% 29.96 in 10.0 mi SE 11.5 mph - N/A   Partly Cloudy
12:53 PM 66.0 °F - 53.1 °F 63% 29.94 in 10.0 mi SE 10.4 mph - N/A   Scattered Clouds
1:53 PM 69.1 °F - 51.1 °F 53% 29.91 in 10.0 mi South 9.2 mph - N/A   Partly Cloudy
2:53 PM 72.0 °F - 50.0 °F 46% 29.89 in 10.0 mi SW 15.0 mph - N/A   Overcast
3:53 PM 70.0 °F - 48.9 °F 47% 29.88 in 10.0 mi WSW 15.0 mph - N/A   Overcast
4:53 PM 71.1 °F - 48.0 °F 44% 29.87 in 10.0 mi West 9.2 mph - N/A   Overcast
5:53 PM 72.0 °F - 50.0 °F 46% 29.86 in 10.0 mi SW 8.1 mph - N/A   Overcast
6:53 PM 71.1 °F - 50.0 °F 47% 29.85 in 10.0 mi West 10.4 mph - N/A   Overcast
7:53 PM 71.6 °F - 51.1 °F 48% 29.85 in 10.0 mi North 10.4 mph - N/A   Overcast
8:53 PM 62.1 °F - 48.9 °F 62% 29.85 in 10.0 mi NNE 9.2 mph - N/A   Overcast
9:53 PM 62.1 °F - 48.9 °F 62% 29.84 in 10.0 mi NNE 8.1 mph - N/A   Overcast
10:53 PM 57.9 °F - 52.0 °F 81% 29.86 in 10.0 mi North 5.8 mph - 0.00 in   Overcast
11:53 PM 57.9 °F - 52.0 °F 81% 29.85 in 10.0 mi North 5.8 mph - 0.00 in   Overcast